Location: Brabourne
(51.1333°N, 1.0000°E)
Time: 08:17:56
(UTC+00:00)

USA 215 - Pass Details

Date: 20 June 2021
Orbit: 1100 x 1107 km, 123.0° (Epoch: 01 August)

Event Time Altitude Azimuth Distance (km) Brightness Sun altitude
Rises 00:37:12 0° 62° (ENE) 3,924 6.7 -14.9°
Reaches altitude 10° 00:39:41 10° 61° (ENE) 2,964 6.1 -14.9°
Maximum altitude 00:46:12 73° 338° (NNW) 1,153 3.5 -14.7°
Drops below altitude 10° 00:52:41 10° 256° (WSW) 2,957 5.3 -14.4°
Sets 00:55:10 0° 254° (WSW) 3,914 5.9 -14.4°
